Date,TemperatureHighF,TemperatureAvgF,TemperatureLowF,DewpointHighF,DewpointAvgF,DewpointLowF,HumidityHigh,HumidityAvg,HumidityLow,PressureMaxIn,PressureMinIn,WindSpeedMaxMPH,WindSpeedAvgMPH,GustSpeedMaxMPH,PrecipitationSumIn
2014-2-1,61.6,48.7,39.1,40.7,20.6,3.6,84,37,13,30.36,30.23,11,0,11,0.00
2014-2-2,62.4,52.5,42.2,55.3,48.2,39.5,96,86,70,30.29,30.05,10,0,10,0.53
2014-2-3,60.6,46.8,38.4,58.2,45.2,37.4,98,94,83,30.33,29.94,24,1,24,0.85
2014-2-4,53.0,44.8,36.6,48.2,42.9,35.8,98,93,83,30.40,30.13,13,1,13,0.02
2014-2-5,50.4,40.8,25.5,49.9,38.3,23.2,98,91,78,30.38,29.99,16,2,16,0.27
2014-2-6,35.5,27.8,23.3,26.5,23.6,20.7,94,84,67,30.55,30.36,7,0,7,0.00
2014-2-7,44.3,32.2,24.9,30.5,25.9,19.4,97,80,42,30.59,30.45,3,0,5,0.00
2014-2-8,47.6,38.5,32.9,34.9,30.4,25.7,90,73,55,30.47,30.32,5,0,5,0.00
2014-2-9,50.2,39.4,31.8,39.3,35.2,29.9,95,85,65,30.38,30.22,7,0,7,0.00
2014-2-10,38.8,35.7,32.5,37.6,34.4,31.1,97,95,91,30.37,30.24,4,0,4,0.01
2014-2-11,35.5,33.6,32.0,34.6,33.0,31.2,98,98,95,30.45,30.34,4,0,4,0.17
2014-2-12,33.4,30.7,26.1,32.6,29.4,24.6,98,95,90,30.43,29.98,9,0,9,0.00
2014-2-13,34.8,31.1,28.1,33.1,30.1,27.4,98,96,90,30.08,29.89,10,0,10,0.20
2014-2-14,50.7,38.3,30.1,36.9,31.5,27.8,94,78,48,30.11,29.87,18,0,18,0.56
2014-2-15,38.4,30.6,26.8,36.8,25.6,18.5,97,83,52,30.34,29.82,18,3,18,0.07
2014-2-16,53.3,40.1,28.7,32.4,26.1,18.1,82,59,37,30.36,30.27,14,1,14,0.02
2014-2-17,56.2,44.6,37.4,42.4,32.8,29.0,95,64,41,30.41,30.25,14,1,14,0.08
2014-2-18,67.8,50.2,37.5,52.0,36.1,22.8,97,66,20,30.41,30.20,10,0,10,0.08
2014-2-19,65.7,59.0,53.9,56.8,54.3,51.8,96,85,65,30.20,30.12,10,1,10,0.10
2014-2-20,62.6,58.5,56.8,56.6,53.9,-99.9,94,86,77,30.21,29.99,14,-5,14,0.00
2014-2-21,61.9,50.0,40.4,57.9,35.2,18.6,96,61,29,30.25,29.88,13,2,13,0.88
2014-2-22,65.6,48.1,38.2,29.3,21.7,6.6,59,38,12,30.39,30.23,11,0,11,0.00
2014-2-23,70.2,55.8,46.5,33.3,27.3,-99.9,50,35,19,30.25,30.07,9,-3,9,0.00
2014-2-24,55.4,43.9,36.4,36.8,29.4,-99.9,90,60,30,30.29,30.11,9,-4,9,0.00
2014-2-25,56.6,44.3,35.1,35.0,26.9,20.1,73,51,38,30.28,30.09,10,1,10,0.00
2014-2-26,41.7,33.8,25.2,24.2,20.7,12.5,69,59,46,30.13,30.00,12,1,12,0.00
2014-2-27,41.6,27.6,19.1,12.9,7.0,-3.9,63,45,17,30.24,30.09,13,2,13,0.00
2014-2-28,51.2,36.7,23.0,19.1,13.4,9.9,62,40,20,30.39,30.23,12,0,12,0.00